TimeCET,TemperatureF,Dew PointF,Humidity,Sea Level PressureIn,VisibilityMPH,Wind Direction,Wind SpeedMPH,Gust SpeedMPH,PrecipitationIn,Events,Conditions,WindDirDegrees,DateUTC
12:55 AM,15.8,15.8,100,29.68,0.0,SSE,11.5,-,N/A,Fog,Light Freezing Fog,160,2013-02-20 23:55:00
1:00 AM,16,16,99,,0,SSE,11.5,,,Fog,Heavy Fog,160,2013-02-21 00:00:00
1:55 AM,15.8,15.8,100,29.68,0.0,SSE,9.2,-,N/A,Fog,Light Freezing Fog,150,2013-02-21 00:55:00
2:55 AM,15.8,15.8,100,29.65,0.0,South,11.5,-,N/A,Fog,Light Freezing Fog,170,2013-02-21 01:55:00
3:55 AM,15.8,15.8,100,29.65,0.0,SSE,10.4,-,N/A,Fog,Light Freezing Fog,160,2013-02-21 02:55:00
4:00 AM,16,16,99,,0,SSE,10.4,,,Fog,Heavy Fog,160,2013-02-21 03:00:00
4:55 AM,15.8,15.8,100,29.62,0.0,SSE,6.9,-,N/A,Fog,Light Freezing Fog,150,2013-02-21 03:55:00
5:55 AM,15.8,15.8,100,29.59,0.0,SSE,9.2,-,N/A,Fog,Light Freezing Fog,150,2013-02-21 04:55:00
6:55 AM,15.8,14.0,93,29.59,0.0,SE,8.1,-,N/A,Fog,Light Freezing Fog,130,2013-02-21 05:55:00
7:00 AM,16,15,91,,0,SE,8.1,,,Fog,Heavy Fog,130,2013-02-21 06:00:00
7:55 AM,15.8,14.0,93,29.59,0.0,SE,9.2,-,N/A,Fog,Light Freezing Fog,130,2013-02-21 06:55:00
8:55 AM,15.8,14.0,93,29.59,-9999.0,SE,9.2,-,N/A,Fog,Light Freezing Fog,130,2013-02-21 07:55:00
9:55 AM,15.8,15.8,100,29.59,-9999.0,SSE,9.2,-,N/A,Fog,Light Freezing Fog,160,2013-02-21 08:55:00
10:00 AM,16,15,94,,0,SSE,9.2,,,Snow,Light Snow,160,2013-02-21 09:00:00
10:55 AM,17.6,15.8,93,29.56,-9999.0,NNE,4.6,-,N/A,Fog,Light Freezing Fog,30,2013-02-21 09:55:00
11:55 AM,15.8,14.0,93,29.56,0.1,North,3.5,-,N/A,Fog-Snow,Light Snow,360,2013-02-21 10:55:00
12:55 PM,17.6,14.0,86,29.56,0.2,North,3.5,-,N/A,Fog-Snow,Light Snow,360,2013-02-21 11:55:00
1:00 PM,18,15,81,,0,North,3.5,,,Snow,Light Snow,0,2013-02-21 12:00:00
1:55 PM,17.6,14.0,86,29.53,0.2,North,5.8,-,N/A,Fog-Snow,Light Snow,350,2013-02-21 12:55:00
2:55 PM,19.4,15.8,86,29.50,0.4,Variable,2.3,-,N/A,Fog-Snow,Light Snow,0,2013-02-21 13:55:00
3:55 PM,17.6,14.0,86,29.50,0.4,North,4.6,-,N/A,Fog-Snow,Light Snow,360,2013-02-21 14:55:00
4:00 PM,18,14,77,,0,North,4.6,,,Snow,Light Snow,0,2013-02-21 15:00:00
4:55 PM,17.6,12.2,79,29.50,0.4,North,3.5,-,N/A,Fog-Snow,Light Snow,10,2013-02-21 15:55:00
5:55 PM,17.6,12.2,79,29.47,0.4,North,3.5,-,N/A,Fog-Snow,Light Snow,360,2013-02-21 16:55:00
6:55 PM,17.6,12.2,79,29.47,0.4,NNE,4.6,-,N/A,Fog-Snow,Light Snow,30,2013-02-21 17:55:00
7:00 PM,17,12,74,,0,NNE,4.6,,,Snow,Light Snow,30,2013-02-21 18:00:00
7:55 PM,15.8,12.2,86,29.47,-9999.0,NE,9.2,-,N/A,Fog,Light Freezing Fog,40,2013-02-21 18:55:00
8:55 PM,14.0,12.2,93,29.47,-9999.0,NNE,9.2,-,N/A,Fog,Light Freezing Fog,30,2013-02-21 19:55:00
9:55 PM,14.0,12.2,93,29.47,-9999.0,NE,10.4,-,N/A,Fog,Light Freezing Fog,40,2013-02-21 20:55:00
10:00 PM,13,12,96,,0,NE,10.4,,,Snow,Light Snow,40,2013-02-21 21:00:00
10:55 PM,14.0,12.2,93,29.44,-9999.0,ENE,9.2,-,N/A,Fog,Light Freezing Fog,60,2013-02-21 21:55:00
11:55 PM,14.0,10.4,86,29.42,0.4,East,6.9,-,N/A,Fog-Snow,Light Snow,100,2013-02-21 22:55:00